Previsão horária em Alihanmahi

Hoje, 19 Junho, Sábado

Tempo Temperatura Precipitação Vento Pressão Humidade
00:00 +14°C° 0 mm 1 m/s 633 mmHg 83%
01:00 +14°C° 0 mm 2 m/s 633 mmHg 82%
02:00 +14°C° 0 mm 2 m/s 633 mmHg 81%
03:00 +14°C° 0 mm 2 m/s 633 mmHg 81%
04:00 +15°C° 0 mm 2 m/s 633 mmHg 79%
05:00 +16°C° 0 mm 2 m/s 634 mmHg 77%
06:00 +18°C° 0 mm 1 m/s 634 mmHg 75%
07:00 +19°C° 0 mm 2 m/s 634 mmHg 64%
08:00 +21°C° 0 mm 2 m/s 635 mmHg 53%
09:00 +23°C° 0 mm 2 m/s 635 mmHg 45%
10:00 +24°C° 0 mm 3 m/s 635 mmHg 44%
11:00 +25°C° 0 mm 3 m/s 635 mmHg 43%
12:00 +25°C° 0 mm 4 m/s 635 mmHg 42%
13:00 +25°C° 0 mm 4 m/s 635 mmHg 44%
14:00 +25°C° 0 mm 4 m/s 635 mmHg 45%
15:00 +25°C° 0 mm 3 m/s 635 mmHg 47%
16:00 +24°C° 0 mm 3 m/s 634 mmHg 54%
17:00 +22°C° 0 mm 3 m/s 634 mmHg 61%
18:00 +21°C° 0 mm 2 m/s 634 mmHg 68%
19:00 +19°C° 0 mm 2 m/s 634 mmHg 69%
20:00 +18°C° 0 mm 3 m/s 634 mmHg 70%
21:00 +16°C° 0 mm 3 m/s 633 mmHg 70%
22:00 +16°C° 0 mm 3 m/s 633 mmHg 66%
23:00 +16°C° 0 mm 3 m/s 633 mmHg 62%

Amanhã, 20 Junho, Domingo

Tempo Temperatura Precipitação Vento Pressão Humidade
00:00 +16°C° 0 mm 3 m/s 633 mmHg 58%
01:00 +16°C° 0 mm 3 m/s 632 mmHg 55%
02:00 +14°C° 0 mm 3 m/s 632 mmHg 52%
03:00 +14°C° 0 mm 3 m/s 632 mmHg 50%
04:00 +16°C° 0 mm 3 m/s 632 mmHg 52%
05:00 +16°C° 0 mm 3 m/s 632 mmHg 54%
06:00 +17°C° 0 mm 2 m/s 633 mmHg 57%
07:00 +19°C° 0 mm 2 m/s 633 mmHg 52%
08:00 +21°C° 0 mm 2 m/s 633 mmHg 47%
09:00 +24°C° 0 mm 2 m/s 634 mmHg 42%
10:00 +25°C° 0 mm 3 m/s 634 mmHg 41%
11:00 +26°C° 0 mm 3 m/s 634 mmHg 40%
12:00 +27°C° 0 mm 3 m/s 634 mmHg 39%
13:00 +27°C° 0 mm 3 m/s 634 mmHg 41%
14:00 +27°C° 0 mm 3 m/s 634 mmHg 44%
15:00 +27°C° 0 mm 3 m/s 634 mmHg 46%
16:00 +26°C° 0 mm 3 m/s 634 mmHg 53%
17:00 +24°C° 0 mm 3 m/s 633 mmHg 60%
18:00 +23°C° 0 mm 2 m/s 633 mmHg 67%
19:00 +21°C° 0 mm 2 m/s 633 mmHg 66%
20:00 +19°C° 0 mm 3 m/s 633 mmHg 66%
21:00 +17°C° 0 mm 3 m/s 633 mmHg 65%
22:00 +17°C° 0 mm 3 m/s 633 mmHg 62%
23:00 +17°C° 0 mm 3 m/s 632 mmHg 59%

Depois de amanhã, 21 Junho, Segunda-feira

Tempo Temperatura Precipitação Vento Pressão Humidade
00:00 +16°C° 0 mm 2 m/s 632 mmHg 56%
01:00 +16°C° 0 mm 2 m/s 632 mmHg 54%
02:00 +16°C° 0 mm 2 m/s 632 mmHg 53%
03:00 +16°C° 0 mm 2 m/s 632 mmHg 51%
04:00 +16°C° 0 mm 2 m/s 632 mmHg 53%
05:00 +17°C° 0 mm 2 m/s 632 mmHg 55%
06:00 +18°C° 0 mm 2 m/s 633 mmHg 57%
07:00 +20°C° 0 mm 2 m/s 633 mmHg 53%
08:00 +23°C° 0 mm 2 m/s 634 mmHg 48%
09:00 +25°C° 0 mm 2 m/s 634 mmHg 44%
10:00 +25°C° 0 mm 3 m/s 634 mmHg 44%
11:00 +26°C° 0 mm 3 m/s 634 mmHg 43%
12:00 +27°C° 0 mm 4 m/s 634 mmHg 43%
13:00 +27°C° 0 mm 4 m/s 634 mmHg 44%
14:00 +26°C° 0 mm 4 m/s 634 mmHg 45%
15:00 +26°C° 0 mm 4 m/s 634 mmHg 45%
16:00 +25°C° 0 mm 4 m/s 633 mmHg 50%
17:00 +24°C° 0 mm 3 m/s 633 mmHg 55%
18:00 +22°C° 0 mm 3 m/s 633 mmHg 60%
19:00 +20°C° 0 mm 3 m/s 632 mmHg 57%
20:00 +19°C° 0 mm 3 m/s 632 mmHg 54%
21:00 +17°C° 0 mm 3 m/s 632 mmHg 51%
22:00 +17°C° 0 mm 3 m/s 632 mmHg 49%
23:00 +17°C° 0 mm 2 m/s 632 mmHg 48%

22 Junho, Terça-feira

Tempo Temperatura Precipitação Vento Pressão Humidade
00:00 +17°C° 0 mm 2 m/s 632 mmHg 46%
01:00 +16°C° 0 mm 2 m/s 631 mmHg 45%
02:00 +16°C° 0 mm 2 m/s 631 mmHg 44%
03:00 +16°C° 0 mm 2 m/s 631 mmHg 44%
04:00 +17°C° 0 mm 2 m/s 632 mmHg 47%
05:00 +18°C° 0 mm 2 m/s 632 mmHg 50%
06:00 +18°C° 0 mm 2 m/s 632 mmHg 53%
07:00 +20°C° 0 mm 2 m/s 633 mmHg 49%
08:00 +23°C° 0 mm 2 m/s 633 mmHg 45%
09:00 +25°C° 0 mm 2 m/s 634 mmHg 40%
10:00 +26°C° 0 mm 3 m/s 634 mmHg 39%
11:00 +26°C° 0 mm 3 m/s 634 mmHg 39%
12:00 +27°C° 0 mm 4 m/s 635 mmHg 38%
13:00 +27°C° 0 mm 4 m/s 634 mmHg 38%
14:00 +27°C° 0 mm 4 m/s 634 mmHg 39%
15:00 +27°C° 0 mm 4 m/s 634 mmHg 39%
16:00 +26°C° 0 mm 4 m/s 634 mmHg 45%
17:00 +25°C° 0 mm 3 m/s 634 mmHg 51%
18:00 +22°C° 0 mm 3 m/s 633 mmHg 57%
19:00 +21°C° 0 mm 3 m/s 633 mmHg 55%
20:00 +19°C° 0 mm 3 m/s 633 mmHg 52%
21:00 +17°C° 0 mm 3 m/s 633 mmHg 50%
22:00 +17°C° 0 mm 3 m/s 633 mmHg 48%
23:00 +17°C° 0 mm 3 m/s 632 mmHg 45%

23 Junho, Quarta-feira

Tempo Temperatura Precipitação Vento Pressão Humidade
00:00 +17°C° 0 mm 3 m/s 632 mmHg 43%
01:00 +17°C° 0 mm 3 m/s 632 mmHg 41%
02:00 +16°C° 0 mm 3 m/s 632 mmHg 40%
03:00 +16°C° 0 mm 3 m/s 632 mmHg 38%
04:00 +17°C° 0 mm 3 m/s 632 mmHg 42%
05:00 +18°C° 0 mm 3 m/s 632 mmHg 46%
06:00 +18°C° 0 mm 2 m/s 633 mmHg 50%
07:00 +20°C° 0 mm 3 m/s 633 mmHg 46%
08:00 +22°C° 0 mm 3 m/s 633 mmHg 42%
09:00 +25°C° 0 mm 3 m/s 634 mmHg 38%
10:00 +26°C° 0 mm 3 m/s 634 mmHg 38%
11:00 +27°C° 0 mm 3 m/s 634 mmHg 39%
12:00 +28°C° 0 mm 3 m/s 634 mmHg 39%
13:00 +27°C° 0 mm 3 m/s 634 mmHg 41%
14:00 +27°C° 0 mm 3 m/s 634 mmHg 43%
15:00 +27°C° 0 mm 3 m/s 634 mmHg 45%
16:00 +26°C° 0 mm 3 m/s 634 mmHg 51%
17:00 +25°C° 0 mm 2 m/s 634 mmHg 57%
18:00 +24°C° 0 mm 2 m/s 634 mmHg 63%
19:00 +21°C° 0 mm 2 m/s 634 mmHg 63%
20:00 +20°C° 0 mm 2 m/s 633 mmHg 63%
21:00 +18°C° 0 mm 2 m/s 633 mmHg 63%
22:00 +18°C° 0 mm 2 m/s 633 mmHg 60%
23:00 +17°C° 0 mm 2 m/s 633 mmHg 57%

24 Junho, Quinta-feira

Tempo Temperatura Precipitação Vento Pressão Humidade
00:00 +17°C° 0 mm 2 m/s 633 mmHg 53%
01:00 +17°C° 0 mm 2 m/s 633 mmHg 52%
02:00 +16°C° 0 mm 2 m/s 633 mmHg 50%
03:00 +16°C° 0 mm 2 m/s 633 mmHg 49%
04:00 +17°C° 0 mm 2 m/s 633 mmHg 51%
05:00 +18°C° 0 mm 2 m/s 633 mmHg 53%
06:00 +20°C° 0 mm 1 m/s 634 mmHg 55%
07:00 +21°C° 0 mm 2 m/s 634 mmHg 51%
08:00 +23°C° 0 mm 2 m/s 635 mmHg 47%
09:00 +25°C° 0 mm 2 m/s 635 mmHg 43%
10:00 +26°C° 0 mm 2 m/s 635 mmHg 42%
11:00 +27°C° 0 mm 2 m/s 635 mmHg 41%
12:00 +27°C° 0 mm 3 m/s 635 mmHg 41%
13:00 +27°C° 0 mm 3 m/s 635 mmHg 41%
14:00 +27°C° 0 mm 3 m/s 635 mmHg 42%
15:00 +27°C° 0 mm 3 m/s 635 mmHg 42%
16:00 +26°C° 0 mm 3 m/s 635 mmHg 47%
17:00 +25°C° 0 mm 2 m/s 635 mmHg 52%
18:00 +24°C° 0 mm 2 m/s 634 mmHg 57%
19:00 +21°C° 0 mm 2 m/s 634 mmHg 57%
20:00 +19°C° 0 mm 2 m/s 634 mmHg 58%
21:00 +18°C° 0 mm 2 m/s 634 mmHg 59%
22:00 +17°C° 0.2 mm 2 m/s 633 mmHg 61%
23:00 +17°C° 0.2 mm 2 m/s 633 mmHg 63%
Mostrar mais